Location: Biltmore Gardens
(41.6070°N, 83.4666°W)
Time: 05:02:53
(UTC+00:00)

A-11 Canister half - Pass Details

Date: 23 April 2021
Orbit: 1526 x 1683 km, 47.3° (Epoch: 11 May)

Event Time Altitude Azimuth Distance (km) Brightness Sun altitude
Rises 04:53:26 0° 287° (WNW) 4,930 12.0 -35.1°
Reaches altitude 10° 04:59:17 10° 261° (W) 3,918 11.1 -35.3°
Enters shadow 05:01:45 12° 247° (WSW) 3,727 10.9 -35.3°
